When you browse on this site, cookies collect data to enhance your experience and personalize the content and advertising you see.
Visit our Privacy Policy to learn more. By continuing to use the site, you agree to this use of cookies and data.
  • In United Kingdom
  • List of Countries
  • For 7 days
  • Water Temperature
  • Satellite Maps
  • Weather Map
  • Weather Widgets
  • user-avatar
    Login

    Hourly Weather Charkesar

    Today, 26 June, Wednesday

    Time Temperature Precipitation Wind Pressure Humidity
    00:00 +23°C° 0 mm 1 mps 654 mmHg 39%
    01:00 +23°C° 0 mm 1 mps 653 mmHg 41%
    02:00 +22°C° 0 mm 1 mps 653 mmHg 42%
    03:00 +22°C° 0 mm 1 mps 653 mmHg 44%
    04:00 +21°C° 0 mm 1 mps 652 mmHg 45%
    05:00 +21°C° 0 mm 1 mps 652 mmHg 47%
    06:00 +22°C° 0 mm 1 mps 653 mmHg 42%
    07:00 +24°C° 0 mm 1 mps 653 mmHg 37%
    08:00 +26°C° 0 mm 1 mps 654 mmHg 31%
    09:00 +27°C° 0 mm 1 mps 654 mmHg 30%
    10:00 +28°C° 0 mm 2 mps 654 mmHg 28%
    11:00 +29°C° 0 mm 2 mps 654 mmHg 27%
    12:00 +30°C° 0.1 mm 2 mps 654 mmHg 26%
    13:00 +31°C° 0.1 mm 2 mps 654 mmHg 24%
    14:00 +31°C° 0.1 mm 2 mps 654 mmHg 23%
    15:00 +31°C° 0 mm 2 mps 654 mmHg 23%
    16:00 +31°C° 0 mm 2 mps 653 mmHg 23%
    17:00 +31°C° 0 mm 2 mps 653 mmHg 23%
    18:00 +30°C° 0 mm 1 mps 653 mmHg 26%
    19:00 +29°C° 0 mm 1 mps 653 mmHg 29%
    20:00 +27°C° 0 mm 1 mps 653 mmHg 33%
    21:00 +26°C° 0.1 mm 1 mps 652 mmHg 33%
    22:00 +26°C° 0.1 mm 2 mps 652 mmHg 34%
    23:00 +25°C° 0.1 mm 2 mps 652 mmHg 35%

    Tomorrow, 27 June, Thursday

    Time Temperature Precipitation Wind Pressure Humidity
    00:00 +24°C° 0 mm 2 mps 651 mmHg 36%
    01:00 +24°C° 0 mm 1 mps 651 mmHg 36%
    02:00 +23°C° 0 mm 1 mps 650 mmHg 37%
    03:00 +22°C° 0 mm 1 mps 650 mmHg 38%
    04:00 +22°C° 0 mm 1 mps 650 mmHg 40%
    05:00 +21°C° 0 mm 1 mps 650 mmHg 41%
    06:00 +23°C° 0 mm 1 mps 650 mmHg 37%
    07:00 +25°C° 0 mm 1 mps 651 mmHg 32%
    08:00 +26°C° 0 mm 1 mps 651 mmHg 28%
    09:00 +27°C° 0 mm 1 mps 652 mmHg 27%
    10:00 +28°C° 0 mm 2 mps 652 mmHg 25%
    11:00 +29°C° 0 mm 2 mps 652 mmHg 24%
    12:00 +30°C° 0 mm 3 mps 652 mmHg 22%
    13:00 +31°C° 0 mm 3 mps 652 mmHg 20%
    14:00 +33°C° 0 mm 3 mps 652 mmHg 18%
    15:00 +33°C° 0 mm 4 mps 652 mmHg 18%
    16:00 +33°C° 0 mm 4 mps 652 mmHg 18%
    17:00 +33°C° 0 mm 4 mps 652 mmHg 17%
    18:00 +30°C° 0 mm 4 mps 652 mmHg 22%
    19:00 +28°C° 0 mm 3 mps 652 mmHg 27%
    20:00 +27°C° 0 mm 3 mps 651 mmHg 31%
    21:00 +26°C° 0 mm 2 mps 651 mmHg 34%
    22:00 +25°C° 0 mm 2 mps 651 mmHg 36%
    23:00 +24°C° 0 mm 2 mps 651 mmHg 38%

    Day after tomorrow, 28 June, Friday

    Time Temperature Precipitation Wind Pressure Humidity
    00:00 +23°C° 0 mm 1 mps 650 mmHg 40%
    01:00 +23°C° 0 mm 1 mps 650 mmHg 41%
    02:00 +22°C° 0 mm 1 mps 650 mmHg 43%
    03:00 +21°C° 0 mm 1 mps 649 mmHg 44%
    04:00 +21°C° 0 mm 1 mps 649 mmHg 44%
    05:00 +19°C° 0 mm 0 mps 649 mmHg 45%
    06:00 +22°C° 0 mm 1 mps 650 mmHg 40%
    07:00 +24°C° 0 mm 1 mps 650 mmHg 35%
    08:00 +26°C° 0 mm 1 mps 651 mmHg 30%
    09:00 +27°C° 0 mm 1 mps 651 mmHg 29%
    10:00 +28°C° 0 mm 2 mps 651 mmHg 27%
    11:00 +30°C° 0 mm 2 mps 651 mmHg 25%
    12:00 +30°C° 0 mm 2 mps 651 mmHg 24%
    13:00 +31°C° 0 mm 2 mps 651 mmHg 23%
    14:00 +32°C° 0 mm 2 mps 650 mmHg 22%
    15:00 +32°C° 0 mm 2 mps 651 mmHg 22%
    16:00 +32°C° 0 mm 2 mps 651 mmHg 21%
    17:00 +32°C° 0 mm 2 mps 651 mmHg 21%
    18:00 +30°C° 0 mm 2 mps 651 mmHg 24%
    19:00 +29°C° 0 mm 3 mps 651 mmHg 28%
    20:00 +28°C° 0 mm 3 mps 650 mmHg 32%
    21:00 +27°C° 0 mm 3 mps 650 mmHg 33%
    22:00 +26°C° 0 mm 3 mps 650 mmHg 34%
    23:00 +25°C° 0 mm 4 mps 650 mmHg 36%

    29 June, Saturday

    Time Temperature Precipitation Wind Pressure Humidity
    00:00 +25°C° 0 mm 3 mps 650 mmHg 36%
    01:00 +25°C° 0 mm 2 mps 650 mmHg 37%
    02:00 +24°C° 0 mm 1 mps 650 mmHg 37%
    03:00 +24°C° 0 mm 1 mps 650 mmHg 39%
    04:00 +23°C° 0 mm 1 mps 649 mmHg 40%
    05:00 +23°C° 0 mm 1 mps 649 mmHg 41%
    06:00 +24°C° 0 mm 1 mps 650 mmHg 37%
    07:00 +25°C° 0 mm 1 mps 650 mmHg 33%
    08:00 +27°C° 0 mm 2 mps 651 mmHg 30%
    09:00 +28°C° 0 mm 2 mps 651 mmHg 28%
    10:00 +29°C° 0 mm 2 mps 651 mmHg 27%
    11:00 +30°C° 0 mm 2 mps 651 mmHg 26%
    12:00 +30°C° 0 mm 2 mps 651 mmHg 25%
    13:00 +31°C° 0 mm 2 mps 651 mmHg 24%
    14:00 +32°C° 0 mm 2 mps 651 mmHg 22%
    15:00 +32°C° 0 mm 2 mps 651 mmHg 22%
    16:00 +33°C° 0 mm 3 mps 652 mmHg 22%
    17:00 +33°C° 0 mm 3 mps 652 mmHg 22%
    18:00 +30°C° 0.2 mm 3 mps 651 mmHg 28%
    19:00 +28°C° 0.2 mm 3 mps 651 mmHg 34%
    20:00 +26°C° 0.2 mm 3 mps 651 mmHg 39%
    21:00 +25°C° 0 mm 2 mps 651 mmHg 39%
    22:00 +25°C° 0 mm 2 mps 650 mmHg 39%
    23:00 +24°C° 0 mm 1 mps 650 mmHg 39%

    30 June, Sunday

    Time Temperature Precipitation Wind Pressure Humidity
    00:00 +24°C° 0 mm 1 mps 650 mmHg 39%
    01:00 +23°C° 0 mm 1 mps 649 mmHg 39%
    02:00 +23°C° 0 mm 1 mps 649 mmHg 40%
    03:00 +22°C° 0 mm 1 mps 649 mmHg 41%
    04:00 +22°C° 0 mm 1 mps 649 mmHg 43%
    05:00 +21°C° 0 mm 1 mps 649 mmHg 44%
    06:00 +23°C° 0 mm 1 mps 649 mmHg 39%
    07:00 +25°C° 0 mm 1 mps 650 mmHg 35%
    08:00 +27°C° 0 mm 1 mps 651 mmHg 30%
    09:00 +29°C° 0 mm 1 mps 651 mmHg 28%
    10:00 +30°C° 0 mm 2 mps 651 mmHg 26%
    11:00 +31°C° 0 mm 2 mps 651 mmHg 25%
    12:00 +32°C° 0 mm 2 mps 651 mmHg 23%
    13:00 +34°C° 0 mm 2 mps 651 mmHg 21%
    14:00 +34°C° 0 mm 3 mps 651 mmHg 19%
    15:00 +35°C° 0 mm 3 mps 651 mmHg 19%
    16:00 +35°C° 0 mm 3 mps 652 mmHg 19%
    17:00 +35°C° 0 mm 4 mps 652 mmHg 19%
    18:00 +33°C° 0 mm 3 mps 651 mmHg 22%
    19:00 +30°C° 0 mm 3 mps 651 mmHg 26%
    20:00 +28°C° 0 mm 2 mps 651 mmHg 29%
    21:00 +27°C° 0 mm 2 mps 651 mmHg 30%
    22:00 +27°C° 0 mm 2 mps 650 mmHg 31%
    23:00 +26°C° 0 mm 2 mps 650 mmHg 32%

    1 July, Monday

    Time Temperature Precipitation Wind Pressure Humidity
    00:00 +25°C° 0 mm 2 mps 650 mmHg 33%
    01:00 +25°C° 0 mm 1 mps 650 mmHg 35%
    02:00 +24°C° 0 mm 1 mps 649 mmHg 37%
    03:00 +23°C° 0 mm 1 mps 649 mmHg 38%
    04:00 +23°C° 0 mm 1 mps 649 mmHg 39%
    05:00 +22°C° 0 mm 1 mps 649 mmHg 40%
    06:00 +24°C° 0 mm 1 mps 650 mmHg 35%
    07:00 +26°C° 0 mm 1 mps 651 mmHg 31%
    08:00 +29°C° 0 mm 1 mps 651 mmHg 27%
    09:00 +30°C° 0 mm 1 mps 651 mmHg 25%
    10:00 +31°C° 0 mm 1 mps 652 mmHg 23%
    11:00 +32°C° 0 mm 2 mps 652 mmHg 21%
    12:00 +34°C° 0 mm 2 mps 652 mmHg 20%
    13:00 +35°C° 0 mm 3 mps 652 mmHg 19%
    14:00 +36°C° 0 mm 3 mps 652 mmHg 17%
    15:00 +36°C° 0 mm 3 mps 652 mmHg 17%
    16:00 +36°C° 0 mm 3 mps 652 mmHg 17%
    17:00 +36°C° 0 mm 3 mps 652 mmHg 17%
    18:00 +34°C° 0 mm 3 mps 652 mmHg 20%
    19:00 +32°C° 0 mm 2 mps 652 mmHg 23%
    20:00 +30°C° 0 mm 1 mps 652 mmHg 26%
    21:00 +29°C° 0 mm 2 mps 652 mmHg 27%
    22:00 +28°C° 0 mm 2 mps 651 mmHg 28%
    23:00 +28°C° 0 mm 2 mps 651 mmHg 28%
    Show more